Вернуться в каталог

STARLINK-5918

АктивенСвязьVLEO
NORAD 55939·PAYLOAD·🇺🇸 United States

Запущен Mar 17, 2023 с Vandenberg Space Force Base

Loading…

Ближайшие Пролёты (ближайшие 24 часа)

TLE

СвежийSource: CelesTrak SupGP

Эпоха: Sep 15, 2026, 01:51 UTC

1 55939C 23037AB  26258.07756944  .00269610  00000+0  22358-1 0  2583
2 55939  70.0007 166.9080 0003120 272.6756 296.2622 14.98600905    10

Отслеживайте STARLINK-5918 в реальном времени с AllMySat

Download on the App Store